User: anonymous   Login
Location: NJAA Observatory
(40.6819°N, 74.8979°W)
Time: 17:39:09
(UTC-04:00)
Language:

S-56A Canister/Altair - Orbit

View from above orbital plane
View from above orbital plane
View from above satellite
View from above satellite

Ground track
Ground track

The orbit data is extracted from the following two-line orbital elements,

1    82U 61004B   16243.60468353 +.00000094 +00000-0 +10455-3 0  9993
2    82 038.8592 292.2784 1167398 231.7662 117.2203 12.25774349637605
Epoch (UTC): 30 August 2016 14:30:44
Eccentricity: 0.1167398
inclination: 38.8592°
perigee height: 640 km
apogee height: 2495 km
right ascension of ascending node: 292.2784°
argument of perigee: 231.7662°
revolutions per day: 12.25774349
mean anomaly at epoch: 117.2203°
orbit number at epoch: 63760

The dashed part of the orbit path shows where the satellite is in the earth's shadow,  

DLR